LIRN

Naples

Airport
ICAO code
LIRN
IATA Code
NAP
Summary
ICAO Region
EUR
ICAO Territory
Location

Capodichino, Campania

Serving
Naples
Elevation
294 ft
Coordinates
40° 53' 7" N , 14° 17' 19" E
KCC
Airport CFIT
Runway Visual Perspective
Metar
Observation
LIRN 082250Z 05013KT CAVOK 06/M05 Q1029 NOSIG
Station
Napoli / Capodichino
Date/Time
2023-02-08 22:50:00
Wind direction
50°
Wind speed
13 kts
Lowest cloud amount
clouds and visibility OK
Temperature
6°C
Dew point
-5°C
Humidity
45%
QNH
1029 hPa
Weather condition
n/a

Naples Airport is the airport serving Naples, Italy. It is located 3.2 nm north-northeast of the city in the Capodichino district of Naples.

Climatology

Dry-summer subtropical ”Mediterranean" climate (Köppen climate classification Csa) - characterized by hot, dry summers and mild winters. During the summer, subtropical high pressure cells dominate, making rainfall unlikely except for the occasional thunderstorm. In the winter, periodic storms bring rain (snow at higher elevations).

Runways

Designator Length Width Surface Rops
6/24 2628 45 ASP Yes/Yes

Airport map

Aerial View

SKYbrary Partners:

Safety knowledge contributed by: